Miscellaneous Local Product
Issued by NWS Hastings, NE

Home | Current Version | Previous Version | Graphics & Text | Print | Product List | Glossary On
Versions: 1 2 3 4 5 6 7 8 9 10 11 12 13 14 15 16 17 18 19 20 21 22 23 24 25 26 27 28 29 30 31 32 33 34 35 36 37 38 39 40 41 42 43 44 45 46 47 48 49 50
801
AXUS43 KGID 260502
MISGRI

GID CWA HOURLY WEATHER ROUNDUP
NATIONAL WEATHER SERVICE HASTINGS NE
1200 AM CDT MON SEP 26 2016

NOTE: "FAIR" INDICATES FEW OR NO CLOUDS BELOW 12,000 FEET WITH NO
SIGNIFICANT WEATHER AND/OR OBSTRUCTIONS TO VISIBILITY.

...SOUTH CENTRAL NEBRASKA...

CITY           SKY/WX    TMP DP  RH WIND       PRES   REMARKS
GRAND ISLAND   CLEAR     46  37  71 W8        30.30S
HASTINGS       CLEAR     45  36  70 NW9       30.31S
KEARNEY        CLEAR     46  30  53 W7        30.31F
ORD            CLEAR     41  33  73 NW6       30.30R
YORK           CLEAR     46  41  81 NW8       30.28S
AURORA         CLEAR     46  40  82 NW6       30.29S
LEXINGTON      CLEAR     42  32  67 W6        30.34S
HOLDREGE       CLEAR     46  31  56 NW5       30.32F
HEBRON         CLEAR     50  39  66 NW5       30.28S

...NEBRASKA PANHANDLE...

CITY           SKY/WX    TMP DP  RH WIND       PRES   REMARKS
CHADRON        CLEAR     41  35  79 SW7       30.36R
ALLIANCE       CLEAR     36  31  82 CALM      30.37S
SCOTTSBLUFF    CLEAR     44  37  76 CALM      30.40R
SIDNEY         CLEAR     38  34  85 W8        30.42S WCI  32

...WESTERN AND NORTH CENTRAL NEBRASKA...

CITY           SKY/WX    TMP DP  RH WIND       PRES   REMARKS
VALENTINE      CLEAR     41  31  67 W6        30.32R
AINSWORTH      CLEAR     45  33  63 W7        30.31S
ONEILL         CLEAR     46  32  59 W8        30.29R
BROKEN BOW     CLEAR     39  33  79 CALM      30.32S
IMPERIAL       CLEAR     45  35  68 W3        30.39R
NORTH PLATTE   CLEAR     42  32  67 CALM      30.36S
MCCOOK         CLEAR     43  34  70 SW5       30.35S

...EASTERN NEBRASKA...

CITY           SKY/WX    TMP DP  RH WIND       PRES   REMARKS
NORFOLK        CLEAR     49  36  61 W9        30.25S
SO SIOUX CITY  CLEAR     51  41  68 W7        30.20S
TEKAMAH        CLEAR     54  39  57 W9        30.21S
COLUMBUS       CLEAR    N/A N/A N/A W6        30.26S
ALBION         CLEAR     42  37  82 CALM      30.28S
OMAHA EPPLEY   CLEAR     56  39  53 N6        30.21S
OFFUTT AFB     CLEAR     52  44  73 W6        30.20F
MILLARD        CLEAR     55  42  62 CALM      30.22S
LINCOLN        CLEAR     48  41  76 N3        30.26S
NEBRASKA CITY  CLEAR     55  32  42 NW7       30.23R
BEATRICE       CLEAR     49  42  76 NW7       30.25S
FALLS CITY     CLEAR     52  49  89 NW6       30.22R

...NORTHERN KANSAS...

CITY           SKY/WX    TMP DP  RH WIND       PRES   REMARKS
GOODLAND       CLEAR     46  35  65 NW3       30.39R
HILL CITY      CLEAR     46  36  68 N8        30.34S
HAYS           CLEAR     46  34  61 NW6       30.33R
CONCORDIA      CLEAR     52  42  69 NW8       30.28R
SALINA         CLEAR     55  46  71 NW5       30.28R
TOPEKA         CLEAR     57  50  77 NW7       30.22S HAZE



USA.gov is the U.S. government's official web portal to all federal, state and local government web resources and services.